[[{"header":{"parameterUnit":"m.s-1","parameterCategory":1,"la1":30.2991,"la2":30.254,"lo1":-89.0895,"lo2":-89.0444,"dy":0.0017,"dx":0.0017,"nx":28,"ny":28,"refTime":"2025-08-08T03:00:00:Z","depth":0,"parameterNumber":2,"parameterNumberName":"U-component_of_WINDS"},"data":[0,0,0,0,0,0,0,0,0,0,0,0,0,0,0,0,0,0,0,0,0,0,0,0,0,0,0,0,0,0,0,0,0,0,0,0,0,0,0,0,0,0,0,0,0,0,0,0,0,0,0,0,0,0,0,0,0,0,-2.8996,-2.8995,0,-2.8915,-2.8914,-2.8913,-2.8754,-2.8751,-2.8748,-2.8745,-2.8666,-2.8667,-2.8668,0,0,0,0,0,0,0,0,0,0,0,0,0,-2.9017,-2.9018,-2.8996,-2.8995,-2.8994,-2.8915,-2.8914,-2.8913,-2.8755,-2.8751,-2.8747,-2.8744,-2.8666,-2.8667,-2.8668,0,0,0,0,0,0,0,0,0,0,0,0,0,-2.898,-2.9018,-2.8996,-2.8905,-2.8896,-2.8915,-2.8914,-2.8912,-2.8756,-2.8751,-2.8746,-2.8742,-2.8666,-2.8667,-2.8668,-2.877,0,0,-2.8672,-2.8673,0,0,0,0,0,0,0,0,-2.8982,-2.8979,-2.892,-2.8912,-2.8902,-2.884,-2.8892,-2.8865,-2.8757,-2.8809,-2.8745,-2.874,-2.8728,-2.8724,-2.8719,-2.8766,-2.8763,-2.8672,-2.8673,-2.8673,-2.8674,0,0,0,0,0,0,0,-2.8985,-2.8981,-2.8964,-2.8919,-2.8908,-2.887,-2.8859,-2.8886,-2.8796,-2.8804,-2.8793,-2.8785,-2.8722,-2.8718,-2.8716,-2.8762,-2.8672,-2.8673,-2.8674,-2.8674,-2.8887,-2.8892,0,0,0,0,0,0,-2.9,-2.8985,-2.8966,-2.8961,-2.8931,-2.8873,-2.8861,-2.8864,-2.8795,-2.878,-2.8789,-2.8778,-2.8719,-2.8715,-2.8713,-2.8827,-2.8673,-2.8675,-2.8675,-2.8883,-2.8889,-2.8894,0,0,0,0,0,0,-2.9001,-2.9,-2.8969,-2.897,-2.8963,-2.8878,-2.8882,-2.8865,-2.8861,-2.8784,-2.8767,-2.8801,-2.8715,-2.8711,-2.8756,-2.8822,-2.8675,-2.8676,-2.8877,-2.8884,-2.8891,-2.9056,0,0,0,0,0,0,-2.9002,-2.9001,-2.9038,-2.8972,-2.8964,-2.9014,-2.8886,-2.8867,-2.8863,-2.8848,-2.8791,-2.8777,-2.8711,-2.8755,-2.8758,-2.8821,-2.8677,-2.8871,-2.888,-2.8889,-2.9044,-2.9068,-2.9088,0,0,0,0,0,-2.9004,-2.9089,-2.9041,-2.9039,-2.9008,-2.9018,-2.9013,-2.8934,-2.8869,-2.8906,-2.8856,-2.8779,-2.8814,-2.8761,-2.8763,-2.8827,-2.8866,-2.8877,-2.8888,-2.9035,-2.9063,-2.9088,0,0,0,0,0,0,-2.9166,-2.9078,-2.9024,-2.909,-2.9063,-2.8991,-2.9035,-2.8967,-2.8959,-2.8945,-2.8848,-2.8837,-2.8895,-2.8865,-2.8808,-2.8922,-2.8828,-2.884,-2.8939,-2.8966,-2.8987,-2.8993,-2.8678,0,0,0,0,0,-2.921,-2.9224,-2.9147,-2.9213,-2.9201,-2.9121,-2.9123,-2.9064,-2.9032,-2.902,-2.8974,-2.8947,-2.8951,-2.8957,-2.8957,-2.9039,-2.9025,-2.9084,-2.9106,-2.9125,-2.9136,-2.9177,-2.9203,-2.893,-2.893,-2.893,0,0,-2.93,-2.9254,-2.9269,-2.9244,-2.9216,-2.9234,-2.9113,-2.9137,-2.915,-2.9024,-2.9063,-2.9029,-2.8993,-2.9057,-2.9083,-2.9034,-2.9208,-2.9139,-2.9154,-2.9155,-2.9191,-2.9217,-2.924,-2.8938,-2.8936,-2.8935,0,0,-2.9473,-2.944,-2.949,-2.9464,-2.9422,-2.9368,-2.9381,-2.932,-2.9291,-2.9329,-2.9235,-2.925,-2.926,-2.9238,-2.9228,-2.9393,-2.9322,-2.9396,-2.9511,-2.9552,-2.9574,-2.9592,-2.9651,-2.9673,-2.9408,-2.9408,-2.9408,0,-2.9591,-2.9613,-2.9525,-2.9555,-2.9547,-2.9433,-2.9484,-2.9464,-2.9426,-2.9423,-2.9369,-2.9379,-2.9346,-2.9404,-2.9444,-2.944,-2.9451,-2.9402,-2.9578,-2.9595,-2.9611,-2.9666,-2.9689,-2.9417,-2.9416,-2.9415,-2.9415,0,-2.976,-2.9777,-2.9823,-2.9787,-2.9784,-2.9825,-2.9744,-2.9753,-2.9694,-2.9647,-2.9687,-2.9644,-2.9633,-2.9642,-2.9587,-2.9692,-2.9663,-2.9595,-2.9498,-2.9648,-2.9698,-2.9718,-2.9431,-2.9427,-2.9425,-2.9422,0,0,-3.0033,-2.9947,-2.9966,-2.9948,-2.9893,-2.9905,-2.9942,-2.993,-2.9939,-2.9916,-2.9944,-2.9956,-2.9892,-2.9881,-2.9821,-2.9858,-2.9991,-2.9784,-2.9782,-2.9824,-3.0104,-3.0156,-3.0182,-2.9943,-2.9947,-2.995,-3.0107,0,-3.0194,-3.0249,-3.0171,-3.0244,-3.0259,-3.0151,-3.0182,-3.0153,-3.0109,-3.0116,-3.0069,-3.0078,-2.9993,-2.9986,-3.0017,-2.9968,-3.0046,-2.9956,-2.9969,-2.997,-2.9981,-3.0208,-3.0262,-3.0413,-3.0126,-3.0129,-3.0132,0,-3.0389,-3.0374,-3.0448,-3.0389,-3.0392,-3.0422,-3.0404,-3.0412,-3.0377,-3.0343,-3.0331,-3.026,-3.0292,-3.0199,-3.0242,-3.0182,-3.0183,-3.016,-3.0164,-3.0162,-3.006,-3.0212,-3.0459,-3.0482,-3.0162,-3.0159,-3.0157,0,-3.058,-3.0579,-3.0623,-3.0611,-3.0543,-3.0567,-3.054,-3.05,-3.0497,-3.0483,-3.0481,-3.0471,-3.0466,-3.0461,-3.0389,-3.0328,-3.0441,-3.0342,-3.0414,-3.0416,-3.0443,-3.0442,-3.0694,-3.0444,-3.0444,-3.0444,-3.0443,0,-3.0768,-3.0817,-3.0708,-3.0735,-3.0788,-3.0699,-3.0754,-3.0716,-3.0681,-3.07,-3.0607,-3.0626,-3.053,-3.054,-3.0485,-3.0529,-3.0527,-3.0501,-3.0486,-3.0509,-3.0513,-3.0508,-3.0496,-3.0449,-3.0448,-3.0447,-3.0446,0,-3.099,-3.0919,-3.096,-3.0892,-3.0876,-3.0918,-3.086,-3.0883,-3.0833,-3.0858,-3.0859,-3.0782,-3.0788,-3.0716,-3.0709,-3.0672,-3.0742,-3.0708,-3.0753,-3.0743,-3.0819,-3.0812,-3.1076,-3.1106,-3.0839,-3.0841,-3.0844,0,-3.1114,-3.115,-3.1085,-3.109,-3.1068,-3.1077,-3.1074,-3.0988,-3.0989,-3.0952,-3.098,-3.0978,-3.0972,-3.0988,-3.0932,-3.0927,-3.0892,-3.0985,-3.0891,-3.0913,-3.0893,-3.0892,-3.0895,-3.1005,-3.1008,-3.1011,-3.1013,0,-3.1342,-3.1305,-3.1303,-3.129,-3.1289,-3.1274,-3.1254,-3.1264,-3.117,-3.1176,-3.1181,-3.1177,-3.1169,-3.1169,-3.1153,-3.1126,-3.1055,-3.1043,-3.1059,-3.1084,-3.1108,-3.1096,-3.0807,-3.1037,-3.1035,-3.1033,-3.1032,-3.1031,-3.1518,-3.1545,-3.1503,-3.1505,-3.148,-3.1463,-3.1481,-3.1434,-3.1436,-3.1422,-3.1372,-3.1386,-3.135,-3.132,-3.13,-3.131,-3.1265,-3.1289,-3.1294,-3.1302,-3.1315,-3.1107,-3.1307,-3.1306,-3.1305,-3.1304,-3.1304,0,-3.1741,-3.1709,-3.1711,-3.1685,-3.1686,-3.1618,-3.1592,-3.1598,-3.1611,-3.1583,-3.1579,-3.1585,-3.1585,-3.1529,-3.1522,-3.1541,-3.1508,-3.1542,-3.154,-3.1535,-3.1356,-3.1343,-3.1569,-3.1569,-3.1569,-3.1569,-3.1568,-3.1568,-3.1856,-3.1897,-3.1856,-3.1884,-3.1851,-3.1863,-3.1854,-3.1838,-3.1815,-3.1826,-3.1825,-3.1788,-3.1749,-3.1738,-3.1735,-3.1718,-3.172,-3.1765,-3.1738,-3.1573,-3.1547,-3.1523,-3.1509,-3.1767,-3.1767,-3.1915,-3.1917,-3.1918]},{"header":{"parameterUnit":"m.s-1","parameterCategory":1,"la1":30.2991,"la2":30.254,"lo1":-89.0895,"lo2":-89.0444,"dy":0.0017,"dx":0.0017,"nx":28,"ny":28,"refTime":"2025-08-08T03:00:00:Z","depth":0,"parameterNumber":3,"parameterNumberName":"V-component_of_WINDS"},"data":[0,0,0,0,0,0,0,0,0,0,0,0,0,0,0,0,0,0,0,0,0,0,0,0,0,0,0,0,0,0,0,0,0,0,0,0,0,0,0,0,0,0,0,0,0,0,0,0,0,0,0,0,0,0,0,0,0,0,-1.9169,-1.9169,0,-1.9225,-1.9226,-1.9227,-1.9236,-1.9235,-1.9235,-1.9234,-1.9292,-1.9294,-1.9296,0,0,0,0,0,0,0,0,0,0,0,0,0,-1.9066,-1.9068,-1.9169,-1.9169,-1.917,-1.9225,-1.9226,-1.9227,-1.9236,-1.9235,-1.9234,-1.9234,-1.9291,-1.9294,-1.9296,0,0,0,0,0,0,0,0,0,0,0,0,0,-1.9116,-1.9069,-1.9168,-1.9181,-1.9183,-1.9225,-1.9226,-1.9227,-1.9236,-1.9235,-1.9234,-1.9234,-1.929,-1.9293,-1.9296,-1.933,0,0,-1.9306,-1.9307,0,0,0,0,0,0,0,0,-1.9113,-1.9119,-1.9178,-1.918,-1.9182,-1.9223,-1.9211,-1.9262,-1.9236,-1.9216,-1.9234,-1.9233,-1.9269,-1.9274,-1.9286,-1.9333,-1.9335,-1.9306,-1.9308,-1.9309,-1.931,0,0,0,0,0,0,0,-1.9109,-1.9117,-1.9191,-1.9179,-1.9182,-1.9183,-1.919,-1.9221,-1.9246,-1.9217,-1.9218,-1.9225,-1.927,-1.9284,-1.9288,-1.9336,-1.9306,-1.9308,-1.931,-1.9312,-1.9412,-1.9413,0,0,0,0,0,0,-1.9104,-1.9114,-1.9189,-1.9193,-1.9145,-1.9186,-1.9193,-1.921,-1.9246,-1.925,-1.9225,-1.9225,-1.9279,-1.9284,-1.929,-1.9331,-1.9309,-1.9312,-1.9314,-1.9411,-1.9412,-1.9413,0,0,0,0,0,0,-1.9102,-1.911,-1.9187,-1.9154,-1.9164,-1.9188,-1.9208,-1.9212,-1.9225,-1.9252,-1.9256,-1.9234,-1.9278,-1.9286,-1.932,-1.9333,-1.9313,-1.9316,-1.941,-1.9411,-1.9413,-1.9414,0,0,0,0,0,0,-1.9099,-1.911,-1.9123,-1.9154,-1.9165,-1.9216,-1.9209,-1.9214,-1.923,-1.923,-1.9261,-1.9266,-1.9278,-1.9315,-1.9323,-1.9337,-1.9318,-1.9409,-1.9411,-1.9412,-1.9413,-1.9415,-1.9417,0,0,0,0,0,-1.9095,-1.9121,-1.9124,-1.9133,-1.9183,-1.9217,-1.9223,-1.9237,-1.9231,-1.9245,-1.9262,-1.9265,-1.9331,-1.9319,-1.9327,-1.9343,-1.9408,-1.941,-1.9412,-1.9412,-1.9415,-1.9417,0,0,0,0,0,0,-1.9091,-1.9126,-1.9129,-1.9166,-1.9188,-1.9218,-1.9236,-1.924,-1.9265,-1.9264,-1.928,-1.9287,-1.932,-1.9335,-1.9321,-1.9376,-1.9369,-1.9373,-1.9366,-1.9369,-1.9371,-1.9366,-1.9321,0,0,0,0,0,-1.9095,-1.912,-1.9149,-1.9179,-1.919,-1.9211,-1.9226,-1.9235,-1.9259,-1.9269,-1.9288,-1.9311,-1.9337,-1.9354,-1.9379,-1.9415,-1.9421,-1.943,-1.9432,-1.9433,-1.9436,-1.9455,-1.9459,-1.9419,-1.9419,-1.9419,0,0,-1.9103,-1.9124,-1.914,-1.9179,-1.9197,-1.9222,-1.9219,-1.9246,-1.9265,-1.9273,-1.9306,-1.9321,-1.9348,-1.9383,-1.9399,-1.9396,-1.9449,-1.9436,-1.9437,-1.9439,-1.9458,-1.9461,-1.9465,-1.9421,-1.942,-1.942,0,0,-1.9129,-1.9149,-1.9175,-1.9194,-1.9222,-1.9235,-1.9242,-1.9271,-1.9281,-1.9315,-1.9321,-1.9343,-1.9388,-1.9406,-1.9421,-1.9454,-1.9457,-1.9462,-1.9473,-1.9491,-1.9494,-1.9497,-1.9508,-1.9512,-1.9465,-1.9465,-1.9465,0,-1.9135,-1.9174,-1.9189,-1.9215,-1.9232,-1.924,-1.9267,-1.9284,-1.9319,-1.933,-1.9326,-1.9381,-1.9399,-1.9438,-1.9446,-1.9458,-1.9466,-1.9458,-1.9493,-1.9496,-1.9499,-1.9509,-1.9513,-1.9465,-1.9465,-1.9465,-1.9465,0,-1.9179,-1.9206,-1.9224,-1.9257,-1.9276,-1.9302,-1.932,-1.9337,-1.9344,-1.9358,-1.9392,-1.9414,-1.9444,-1.9454,-1.9461,-1.9493,-1.949,-1.9489,-1.9482,-1.9502,-1.9512,-1.9517,-1.9465,-1.9465,-1.9465,-1.9465,0,0,-1.9206,-1.9246,-1.9252,-1.9267,-1.9298,-1.9319,-1.9345,-1.9374,-1.9388,-1.9411,-1.9433,-1.947,-1.9469,-1.9486,-1.9496,-1.9512,-1.9535,-1.9509,-1.951,-1.9512,-1.9571,-1.9572,-1.9576,-1.9538,-1.9539,-1.9539,-1.9569,0,-1.9235,-1.9283,-1.9297,-1.9337,-1.9361,-1.9369,-1.9392,-1.9413,-1.9426,-1.9448,-1.9463,-1.9489,-1.9486,-1.9496,-1.9513,-1.9529,-1.9547,-1.9527,-1.9558,-1.9559,-1.9551,-1.9582,-1.9582,-1.9609,-1.9573,-1.9574,-1.9574,0,-1.9277,-1.9301,-1.9343,-1.937,-1.9381,-1.9401,-1.9428,-1.9449,-1.9473,-1.9482,-1.9501,-1.9508,-1.9536,-1.9527,-1.9564,-1.955,-1.9564,-1.9573,-1.9575,-1.9578,-1.9568,-1.9585,-1.9618,-1.9622,-1.9581,-1.958,-1.958,0,-1.9291,-1.9334,-1.9364,-1.9377,-1.9409,-1.9423,-1.9437,-1.9461,-1.9477,-1.95,-1.951,-1.9537,-1.9551,-1.9571,-1.9585,-1.9578,-1.9621,-1.9614,-1.9629,-1.9628,-1.9638,-1.9637,-1.9673,-1.9647,-1.9647,-1.9647,-1.9647,0,-1.9322,-1.9348,-1.9371,-1.939,-1.9418,-1.9433,-1.9461,-1.9475,-1.9495,-1.9517,-1.9525,-1.9545,-1.9563,-1.9585,-1.9596,-1.9625,-1.9632,-1.9639,-1.9642,-1.9638,-1.9637,-1.9647,-1.9645,-1.9648,-1.9648,-1.9648,-1.9647,0,-1.9343,-1.9359,-1.9393,-1.9421,-1.9428,-1.9448,-1.9472,-1.949,-1.9503,-1.953,-1.9537,-1.9558,-1.9585,-1.9601,-1.9635,-1.9642,-1.9674,-1.9676,-1.9666,-1.9667,-1.968,-1.9679,-1.9724,-1.973,-1.97,-1.9701,-1.9701,0,-1.9362,-1.9381,-1.9411,-1.9426,-1.944,-1.9464,-1.948,-1.9495,-1.9512,-1.954,-1.9555,-1.9581,-1.9604,-1.9645,-1.9663,-1.9689,-1.9692,-1.9706,-1.9695,-1.9691,-1.9691,-1.969,-1.9691,-1.9707,-1.9707,-1.9708,-1.9708,0,-1.9393,-1.94,-1.9423,-1.9449,-1.9468,-1.9489,-1.951,-1.9522,-1.9541,-1.9559,-1.9585,-1.9603,-1.9636,-1.9663,-1.969,-1.9704,-1.9709,-1.9711,-1.9715,-1.9712,-1.9705,-1.9708,-1.967,-1.971,-1.9709,-1.9709,-1.9709,-1.9709,-1.9413,-1.943,-1.9454,-1.9479,-1.9496,-1.9515,-1.9534,-1.9549,-1.9572,-1.96,-1.9608,-1.9636,-1.9659,-1.9695,-1.971,-1.9732,-1.973,-1.9737,-1.9738,-1.974,-1.974,-1.9701,-1.9737,-1.9737,-1.9737,-1.9737,-1.9737,0,-1.9444,-1.9459,-1.9482,-1.9511,-1.9531,-1.9534,-1.9557,-1.9573,-1.9597,-1.9618,-1.964,-1.967,-1.9695,-1.9715,-1.9741,-1.9755,-1.9758,-1.9761,-1.976,-1.9763,-1.974,-1.9733,-1.9758,-1.9758,-1.9758,-1.9758,-1.9758,-1.9758,-1.9462,-1.9492,-1.9502,-1.9539,-1.9554,-1.9582,-1.9595,-1.9612,-1.9629,-1.9662,-1.9683,-1.9696,-1.9716,-1.9743,-1.9767,-1.9772,-1.9781,-1.9784,-1.9789,-1.9767,-1.9765,-1.9763,-1.9756,-1.9786,-1.9786,-1.981,-1.981,-1.9811]}]]